QPF
0.01 0.01 0.01 0.00 0.00 0.00 0.00 0.00 0.00 0.00 0.00 0.01 0.00 0.00 0.00 0.00 0.00 0.00 0.01 0.01 0.01 0.01 0.01 0.01 0.00 0.00 0.00 0.00 0.00 0.00 0.01 0.01 0.01 0.01 0.01 0.01 0.01 0.02 0.03 0.05 0.05 0.03 0.02 0.01
0.01 0.01 0.00 0.00 0.00 0.00 0.00 0.00 0.00 0.00 0.00 0.00 0.00 0.00 0.00 0.00 0.00 0.00 0.00 0.00 0.01 0.01 0.02 0.01 0.01 0.00 0.00 0.00 0.00 0.00 0.00 0.01 0.01 0.01 0.01 0.01 0.02 0.02 0.02 0.03 0.05 0.05 0.03 0.02
0.00 0.00 0.00 0.00 0.00 0.00 0.00 0.00 0.00 0.00 0.00 0.00 0.00 0.00 0.00 0.00 0.00 0.00 0.00 0.00 0.00 0.01 0.01 0.01 0.00 0.00 0.00 0.00 0.00 0.00 0.00 0.00 0.01 0.01 0.02 0.02 0.03 0.03 0.03 0.05 0.05 0.05 0.05 0.04
0.00 0.00 0.00 0.01 0.01 0.00 0.00 0.00 0.00 0.00 0.00 0.00 0.01 0.01 0.00 0.00 0.00 0.00 0.00 0.00 0.00 0.00 0.00 0.00 0.00 0.00 0.00 0.00 0.00 0.00 0.00 0.00 0.01 0.01 0.01 0.02 0.02 0.02 0.02 0.03 0.04 0.04 0.04 0.05
0.00 0.00 0.00 0.00 0.00 0.01 0.01 0.00 0.01 0.01 0.01 0.01 0.00 0.00 0.00 0.00 0.00 0.00 0.00 0.00 0.00 0.00 0.00 0.00 0.00 0.00 0.00 0.00 0.00 0.00 0.00 0.01 0.01 0.01 0.01 0.02 0.02 0.02 0.02 0.03 0.03 0.04 0.05 0.05
0.01 0.00 0.00 0.00 0.00 0.01 0.01 0.01 0.01 0.01 0.01 0.01 0.00 0.00 0.00 0.00 0.00 0.00 0.00 0.00 0.00 0.00 0.00 0.00 0.00 0.00 0.00 0.00 0.00 0.00 0.00 0.01 0.01 0.02 0.02 0.02 0.02 0.02 0.02 0.03 0.03 0.03 0.04 0.05
0.01 0.01 0.01 0.01 0.01 0.01 0.01 0.02 0.02 0.02 0.01 0.00 0.00 0.00 0.00 0.00 0.00 0.00 0.00 0.00 0.00 0.00 0.00 0.00 0.00 0.00 0.00 0.00 0.00 0.00 0.01 0.01 0.02 0.02 0.03 0.03 0.02 0.02 0.02 0.02 0.03 0.03 0.03 0.04
0.01 0.01 0.01 0.01 0.01 0.01 0.01 0.01 0.01 0.01 0.00 0.00 0.00 0.00 0.00 0.00 0.00 0.00 0.00 0.00 0.00 0.00 0.00 0.00 0.00 0.00 0.00 0.00 0.01 0.01 0.01 0.01 0.02 0.02 0.02 0.02 0.02 0.02 0.02 0.02 0.03 0.03 0.03 0.02
0.01 0.01 0.01 0.01 0.01 0.01 0.02 0.01 0.00 0.01 0.00 0.00 0.00 0.00 0.00 0.00 0.00 0.00 0.00 0.00 0.00 0.00 0.00 0.00 0.00 0.00 0.00 0.01 0.02 0.02 0.02 0.01 0.01 0.01 0.01 0.02 0.02 0.03 0.03 0.02 0.03 0.03 0.03 0.04
0.01 0.01 0.01 0.01 0.01 0.01 0.02 0.02 0.01 0.01 0.01 0.00 0.00 0.00 0.00 0.00 0.00 0.00 0.00 0.00 0.00 0.01 0.01 0.01 0.00 0.00 0.01 0.01 0.01 0.01 0.01 0.02 0.02 0.02 0.01 0.01 0.02 0.03 0.04 0.04 0.04 0.03 0.04 0.04
0.00 0.01 0.01 0.01 0.01 0.01 0.01 0.02 0.02 0.02 0.01 0.00 0.00 0.00 0.00 0.00 0.00 0.00 0.00 0.00 0.00 0.00 0.01 0.01 0.00 0.00 0.01 0.01 0.02 0.01 0.01 0.03 0.03 0.02 0.02 0.01 0.02 0.03 0.04 0.05 0.06 0.06 0.05 0.05
0.00 0.01 0.01 0.01 0.01 0.01 0.01 0.02 0.02 0.03 0.02 0.01 0.01 0.00 0.00 0.00 0.01 0.01 0.01 0.00 0.00 0.01 0.01 0.01 0.00 0.00 0.00 0.00 0.01 0.01 0.01 0.02 0.02 0.03 0.03 0.03 0.03 0.04 0.05 0.05 0.07 0.08 0.08 0.07
0.01 0.02 0.02 0.01 0.01 0.01 0.01 0.01 0.02 0.02 0.03 0.02 0.01 0.01 0.01 0.00 0.01 0.01 0.01 0.01 0.01 0.01 0.01 0.00 0.00 0.00 0.00 0.00 0.00 0.00 0.01 0.01 0.01 0.02 0.02 0.02 0.02 0.03 0.04 0.05 0.06 0.07 0.09 0.09
0.01 0.02 0.02 0.01 0.01 0.01 0.01 0.01 0.01 0.02 0.03 0.02 0.01 0.01 0.01 0.01 0.01 0.01 0.01 0.01 0.01 0.00 0.00 0.00 0.00 0.00 0.00 0.00 0.00 0.00 0.00 0.01 0.01 0.01 0.01 0.02 0.02 0.02 0.03 0.03 0.04 0.06 0.07 0.08
0.02 0.02 0.00 0.00 0.00 0.01 0.01 0.01 0.01 0.02 0.02 0.02 0.02 0.01 0.01 0.01 0.01 0.01 0.01 0.01 0.01 0.00 0.00 0.00 0.00 0.00 0.00 0.00 0.00 0.00 0.01 0.01 0.01 0.01 0.01 0.01 0.01 0.02 0.02 0.03 0.04 0.04 0.05 0.06
0.02 0.03 0.01 0.00 0.00 0.00 0.01 0.01 0.01 0.01 0.01 0.02 0.02 0.02 0.01 0.01 0.01 0.01 0.01 0.01 0.01 0.00 0.00 0.00 0.00 0.00 0.00 0.00 0.00 0.00 0.00 0.00 0.01 0.01 0.01 0.01 0.01 0.02 0.02 0.03 0.04 0.05 0.05 0.04
0.03 0.03 0.02 0.01 0.00 0.01 0.01 0.00 0.00 0.00 0.01 0.01 0.01 0.01 0.01 0.00 0.01 0.01 0.01 0.01 0.00 0.00 0.00 0.00 0.00 0.00 0.00 0.00 0.01 0.01 0.01 0.01 0.01 0.01 0.01 0.01 0.02 0.02 0.03 0.03 0.03 0.05 0.05 0.04
0.02 0.02 0.03 0.02 0.02 0.02 0.01 0.00 0.00 0.00 0.00 0.00 0.01 0.01 0.00 0.00 0.01 0.01 0.01 0.01 0.01 0.01 0.00 0.00 0.00 0.00 0.00 0.01 0.01 0.01 0.02 0.02 0.01 0.01 0.01 0.01 0.01 0.02 0.02 0.03 0.03 0.04 0.04 0.04
0.01 0.02 0.03 0.03 0.03 0.01 0.00 0.00 0.00 0.00 0.00 0.00 0.00 0.01 0.00 0.00 0.00 0.01 0.01 0.01 0.01 0.01 0.01 0.00 0.00 0.00 0.00 0.00 0.00 0.01 0.01 0.01 0.01 0.01 0.02 0.02 0.02 0.01 0.02 0.02 0.03 0.03 0.03 0.03
0.01 0.02 0.04 0.04 0.03 0.02 0.00 0.00 0.01 0.00 0.01 0.00 0.00 0.00 0.00 0.00 0.00 0.01 0.01 0.00 0.00 0.00 0.00 0.00 0.00 0.00 0.00 0.00 0.00 0.00 0.01 0.01 0.01 0.01 0.01 0.02 0.01 0.01 0.01 0.01 0.02 0.03 0.03 0.03
0.02 0.03 0.05 0.04 0.03 0.01 0.01 0.00 0.00 0.01 0.01 0.00 0.00 0.00 0.00 0.00 0.00 0.01 0.00 0.00 0.00 0.00 0.00 0.00 0.00 0.00 0.00 0.01 0.01 0.01 0.01 0.01 0.01 0.01 0.01 0.01 0.01 0.01 0.01 0.01 0.01 0.02 0.02 0.02
0.01 0.01 0.02 0.02 0.03 0.02 0.01 0.00 0.00 0.01 0.00 0.00 0.00 0.00 0.00 0.00 0.00 0.00 0.00 0.00 0.00 0.00 0.00 0.00 0.00 0.00 0.00 0.00 0.00 0.01 0.01 0.01 0.01 0.01 0.01 0.01 0.01 0.01 0.01 0.02 0.02 0.02 0.02 0.02
0.01 0.01 0.01 0.01 0.01 0.01 0.00 0.00 0.00 0.01 0.01 0.01 0.01 0.01 0.00 0.00 0.00 0.00 0.00 0.00 0.00 0.00 0.00 0.00 0.00 0.00 0.00 0.00 0.00 0.00 0.00 0.00 0.00 0.00 0.00 0.01 0.00 0.01 0.01 0.02 0.02 0.02 0.02 0.02
0.01 0.01 0.01 0.01 0.00 0.00 0.00 0.00 0.00 0.00 0.01 0.01 0.01 0.01 0.01 0.01 0.01 0.01 0.01 0.01 0.01 0.01 0.01 0.01 0.00 0.00 0.00 0.00 0.00 0.00 0.00 0.00 0.00 0.00 0.00 0.00 0.00 0.00 0.00 0.01 0.01 0.02 0.02 0.01
0.01 0.01 0.01 0.01 0.01 0.00 0.00 0.00 0.00 0.00 0.01 0.01 0.01 0.01 0.01 0.01 0.01 0.01 0.01 0.01 0.01 0.01 0.01 0.01 0.00 0.00 0.00 0.00 0.00 0.00 0.00 0.00 0.00 0.00 0.00 0.00 0.00 0.00 0.00 0.00 0.00 0.01 0.01 0.01
0.01 0.01 0.01 0.01 0.00 0.00 0.00 0.00 0.00 0.01 0.01 0.01 0.01 0.01 0.01 0.01 0.01 0.01 0.01 0.01 0.01 0.01 0.01 0.01 0.00 0.00 0.00 0.00 0.00 0.00 0.00 0.00 0.00 0.00 0.00 0.00 0.00 0.00 0.00 0.00 0.00 0.00 0.01 0.01
MSLP
1019.92 1019.64 1019.42 1019.32 1019.38 1019.63 1020.03 1020.53 1021.06 1021.52 1021.82 1021.92 1021.80 1021.48 1021.02 1020.50 1020.02 1019.66 1019.48 1019.48 1019.68 1020.03 1020.49 1020.99 1021.49 1021.96 1022.38 1022.76 1023.09 1023.41 1023.71 1024.00 1024.28 1024.55 1024.81 1025.04 1025.25 1025.44 1025.61 1025.78 1025.94 1026.10 1026.24 1026.38
1019.87 1019.59 1019.39 1019.32 1019.43 1019.73 1020.18 1020.72 1021.26 1021.70 1021.97 1022.00 1021.79 1021.35 1020.77 1020.13 1019.53 1019.07 1018.80 1018.76 1018.93 1019.28 1019.76 1020.30 1020.86 1021.38 1021.86 1022.28 1022.66 1023.00 1023.32 1023.62 1023.90 1024.17 1024.42 1024.64 1024.84 1025.03 1025.21 1025.38 1025.55 1025.73 1025.91 1026.08
1019.96 1019.73 1019.60 1019.61 1019.79 1020.14 1020.62 1021.14 1021.63 1021.97 1022.09 1021.95 1021.56 1020.94 1020.18 1019.39 1018.68 1018.15 1017.84 1017.79 1017.98 1018.38 1018.92 1019.53 1020.15 1020.75 1021.29 1021.77 1022.20 1022.59 1022.94 1023.27 1023.57 1023.85 1024.10 1024.32 1024.51 1024.69 1024.86 1025.03 1025.21 1025.41 1025.62 1025.83
1020.20 1020.05 1020.02 1020.13 1020.40 1020.80 1021.26 1021.71 1022.05 1022.19 1022.07 1021.67 1021.00 1020.14 1019.18 1018.24 1017.44 1016.86 1016.56 1016.56 1016.83 1017.31 1017.95 1018.65 1019.37 1020.04 1020.66 1021.21 1021.70 1022.14 1022.54 1022.91 1023.25 1023.55 1023.82 1024.04 1024.24 1024.40 1024.57 1024.74 1024.93 1025.14 1025.38 1025.61
1020.50 1020.47 1020.56 1020.80 1021.15 1021.56 1021.98 1022.30 1022.42 1022.28 1021.84 1021.11 1020.12 1018.98 1017.80 1016.72 1015.85 1015.28 1015.04 1015.13 1015.52 1016.14 1016.90 1017.72 1018.53 1019.29 1019.97 1020.59 1021.14 1021.63 1022.09 1022.52 1022.90 1023.24 1023.54 1023.78 1023.99 1024.16 1024.32 1024.50 1024.70 1024.92 1025.18 1025.45
1020.77 1020.87 1021.10 1021.45 1021.88 1022.30 1022.64 1022.78 1022.65 1022.19 1021.39 1020.29 1018.97 1017.56 1016.18 1014.99 1014.09 1013.56 1013.43 1013.66 1014.20 1014.96 1015.85 1016.78 1017.68 1018.51 1019.25 1019.92 1020.52 1021.07 1021.58 1022.07 1022.51 1022.90 1023.24 1023.52 1023.74 1023.93 1024.10 1024.29 1024.50 1024.74 1025.02 1025.32
1020.89 1021.13 1021.50 1021.97 1022.46 1022.88 1023.12 1023.08 1022.69 1021.91 1020.77 1019.33 1017.71 1016.06 1014.52 1013.27 1012.38 1011.93 1011.92 1012.29 1012.99 1013.89 1014.89 1015.91 1016.87 1017.74 1018.52 1019.22 1019.85 1020.45 1021.02 1021.56 1022.06 1022.52 1022.91 1023.23 1023.49 1023.71 1023.91 1024.11 1024.33 1024.60 1024.90 1025.22
1020.78 1021.15 1021.66 1022.24 1022.79 1023.21 1023.37 1023.16 1022.54 1021.49 1020.05 1018.34 1016.49 1014.67 1013.05 1011.77 1010.93 1010.58 1010.69 1011.20 1012.01 1013.02 1014.09 1015.15 1016.14 1017.02 1017.81 1018.51 1019.17 1019.80 1020.41 1021.01 1021.58 1022.09 1022.55 1022.93 1023.24 1023.49 1023.72 1023.95 1024.20 1024.49 1024.81 1025.14
1020.42 1020.90 1021.53 1022.21 1022.82 1023.24 1023.34 1023.01 1022.22 1020.97 1019.34 1017.45 1015.46 1013.56 1011.91 1010.67 1009.91 1009.65 1009.86 1010.47 1011.35 1012.40 1013.49 1014.54 1015.50 1016.36 1017.12 1017.81 1018.47 1019.12 1019.78 1020.43 1021.06 1021.64 1022.16 1022.61 1022.98 1023.29 1023.56 1023.83 1024.11 1024.41 1024.75 1025.10
1019.83 1020.41 1021.14 1021.90 1022.56 1022.98 1023.04 1022.64 1021.74 1020.38 1018.66 1016.70 1014.69 1012.80 1011.19 1010.02 1009.35 1009.17 1009.45 1010.09 1010.98 1012.00 1013.04 1014.03 1014.92 1015.72 1016.44 1017.10 1017.76 1018.43 1019.12 1019.83 1020.52 1021.18 1021.77 1022.29 1022.72 1023.10 1023.42 1023.73 1024.04 1024.37 1024.72 1025.08
1019.13 1019.78 1020.56 1021.36 1022.04 1022.45 1022.48 1022.04 1021.11 1019.73 1018.01 1016.08 1014.14 1012.33 1010.84 1009.77 1009.18 1009.06 1009.35 1009.97 1010.80 1011.73 1012.66 1013.54 1014.34 1015.05 1015.71 1016.35 1017.01 1017.70 1018.44 1019.20 1019.96 1020.68 1021.35 1021.94 1022.45 1022.89 1023.28 1023.65 1024.00 1024.36 1024.72 1025.08
1018.44 1019.12 1019.91 1020.69 1021.34 1021.71 1021.70 1021.24 1020.30 1018.96 1017.30 1015.49 1013.68 1012.03 1010.67 1009.72 1009.21 1009.11 1009.38 1009.92 1010.64 1011.43 1012.22 1012.96 1013.64 1014.27 1014.88 1015.50 1016.17 1016.90 1017.68 1018.50 1019.33 1020.13 1020.87 1021.54 1022.12 1022.64 1023.11 1023.53 1023.94 1024.33 1024.72 1025.08
1017.90 1018.54 1019.27 1019.97 1020.52 1020.80 1020.72 1020.20 1019.28 1017.99 1016.45 1014.78 1013.15 1011.68 1010.49 1009.66 1009.21 1009.12 1009.33 1009.76 1010.33 1010.96 1011.59 1012.19 1012.76 1013.31 1013.89 1014.51 1015.21 1015.98 1016.82 1017.70 1018.59 1019.45 1020.26 1021.01 1021.68 1022.28 1022.82 1023.33 1023.80 1024.25 1024.66 1025.05
1017.57 1018.11 1018.70 1019.24 1019.62 1019.74 1019.52 1018.94 1018.00 1016.76 1015.34 1013.84 1012.40 1011.12 1010.10 1009.39 1009.00 1008.90 1009.04 1009.35 1009.76 1010.22 1010.69 1011.16 1011.64 1012.14 1012.71 1013.35 1014.08 1014.90 1015.80 1016.74 1017.68 1018.60 1019.48 1020.29 1021.04 1021.73 1022.37 1022.96 1023.52 1024.04 1024.51 1024.93
1017.45 1017.82 1018.20 1018.51 1018.64 1018.53 1018.14 1017.43 1016.45 1015.25 1013.93 1012.60 1011.34 1010.25 1009.40 1008.80 1008.46 1008.35 1008.41 1008.60 1008.87 1009.18 1009.52 1009.89 1010.30 1010.77 1011.34 1012.01 1012.79 1013.66 1014.60 1015.59 1016.57 1017.54 1018.47 1019.34 1020.16 1020.94 1021.68 1022.38 1023.04 1023.65 1024.20 1024.68
1017.45 1017.60 1017.72 1017.73 1017.57 1017.19 1016.57 1015.71 1014.66 1013.48 1012.26 1011.06 1009.98 1009.08 1008.37 1007.89 1007.60 1007.48 1007.49 1007.58 1007.72 1007.91 1008.14 1008.43 1008.80 1009.26 1009.84 1010.54 1011.35 1012.26 1013.24 1014.25 1015.26 1016.26 1017.22 1018.14 1019.03 1019.90 1020.73 1021.54 1022.32 1023.04 1023.69 1024.26
1017.45 1017.35 1017.17 1016.87 1016.39 1015.72 1014.87 1013.85 1012.72 1011.55 1010.40 1009.35 1008.43 1007.69 1007.13 1006.75 1006.52 1006.40 1006.37 1006.38 1006.44 1006.54 1006.69 1006.92 1007.25 1007.70 1008.29 1009.01 1009.85 1010.78 1011.76 1012.78 1013.80 1014.80 1015.78 1016.74 1017.68 1018.62 1019.56 1020.47 1021.36 1022.20 1022.96 1023.64
1017.28 1016.94 1016.47 1015.86 1015.08 1014.16 1013.10 1011.94 1010.76 1009.61 1008.54 1007.61 1006.84 1006.25 1005.83 1005.55 1005.38 1005.28 1005.22 1005.19 1005.18 1005.21 1005.31 1005.49 1005.80 1006.24 1006.82 1007.54 1008.38 1009.30 1010.27 1011.27 1012.27 1013.26 1014.24 1015.22 1016.20 1017.20 1018.22 1019.23 1020.22 1021.17 1022.04 1022.82
1016.85 1016.27 1015.55 1014.69 1013.68 1012.56 1011.35 1010.12 1008.92 1007.81 1006.84 1006.04 1005.42 1004.97 1004.67 1004.49 1004.37 1004.29 1004.23 1004.16 1004.11 1004.09 1004.14 1004.28 1004.56 1004.97 1005.53 1006.23 1007.04 1007.92 1008.86 1009.82 1010.79 1011.75 1012.72 1013.71 1014.72 1015.76 1016.83 1017.91 1018.99 1020.02 1020.98 1021.85
1016.08 1015.32 1014.42 1013.38 1012.23 1011.00 1009.73 1008.49 1007.33 1006.30 1005.44 1004.78 1004.29 1003.97 1003.79 1003.68 1003.62 1003.56 1003.49 1003.41 1003.32 1003.26 1003.27 1003.38 1003.61 1003.99 1004.51 1005.16 1005.92 1006.75 1007.64 1008.55 1009.47 1010.41 1011.36 1012.33 1013.35 1014.41 1015.50 1016.63 1017.74 1018.83 1019.85 1020.78
1015.01 1014.13 1013.13 1012.01 1010.81 1009.56 1008.32 1007.14 1006.07 1005.16 1004.44 1003.90 1003.55 1003.34 1003.24 1003.19 1003.17 1003.13 1003.06 1002.96 1002.85 1002.76 1002.72 1002.79 1002.98 1003.30 1003.77 1004.36 1005.06 1005.83 1006.66 1007.52 1008.40 1009.29 1010.22 1011.18 1012.19 1013.24 1014.34 1015.46 1016.58 1017.68 1018.72 1019.67
1013.70 1012.78 1011.75 1010.64 1009.48 1008.30 1007.16 1006.11 1005.18 1004.41 1003.82 1003.41 1003.16 1003.03 1002.99 1002.99 1002.99 1002.96 1002.88 1002.77 1002.64 1002.52 1002.46 1002.48 1002.62 1002.89 1003.30 1003.82 1004.45 1005.16 1005.93 1006.73 1007.57 1008.44 1009.34 1010.28 1011.26 1012.29 1013.36 1014.45 1015.54 1016.60 1017.62 1018.57
1012.27 1011.36 1010.37 1009.34 1008.29 1007.25 1006.26 1005.37 1004.60 1003.98 1003.52 1003.21 1003.04 1002.97 1002.97 1002.98 1002.99 1002.95 1002.87 1002.75 1002.60 1002.47 1002.38 1002.37 1002.47 1002.69 1003.03 1003.48 1004.04 1004.69 1005.40 1006.16 1006.96 1007.80 1008.67 1009.59 1010.54 1011.54 1012.56 1013.59 1014.62 1015.62 1016.58 1017.49
1010.80 1009.94 1009.04 1008.14 1007.23 1006.37 1005.56 1004.84 1004.23 1003.75 1003.40 1003.17 1003.06 1003.01 1003.02 1003.03 1003.03 1002.98 1002.89 1002.77 1002.62 1002.49 1002.38 1002.35 1002.41 1002.58 1002.86 1003.25 1003.75 1004.33 1004.99 1005.70 1006.47 1007.28 1008.14 1009.03 1009.95 1010.90 1011.87 1012.83 1013.78 1014.71 1015.59 1016.43
1009.33 1008.55 1007.76 1007.00 1006.27 1005.58 1004.95 1004.40 1003.94 1003.57 1003.31 1003.14 1003.05 1003.01 1003.00 1003.00 1002.98 1002.93 1002.84 1002.72 1002.58 1002.45 1002.35 1002.30 1002.33 1002.46 1002.69 1003.02 1003.45 1003.97 1004.58 1005.25 1005.99 1006.77 1007.61 1008.47 1009.37 1010.28 1011.19 1012.09 1012.97 1013.81 1014.62 1015.39
1007.85 1007.14 1006.48 1005.86 1005.28 1004.76 1004.30 1003.89 1003.56 1003.29 1003.09 1002.96 1002.87 1002.82 1002.80 1002.78 1002.74 1002.69 1002.60 1002.50 1002.38 1002.26 1002.17 1002.12 1002.14 1002.23 1002.41 1002.68 1003.05 1003.52 1004.07 1004.70 1005.40 1006.16 1006.98 1007.83 1008.70 1009.58 1010.45 1011.30 1012.12 1012.90 1013.64 1014.35
Thickness
5575 5579 5581 5584 5583 5587 5589 5588 5589 5588 5580 5579 5587 5595 5603 5603 5599 5600 5601 5601 5600 5600 5600 5597 5595 5594 5593 5592 5592 5591 5589 5587 5585 5583 5582 5580 5579 5576 5575 5573 5571 5569 5568 5565
5569 5571 5574 5572 5572 5573 5576 5580 5584 5581 5573 5575 5583 5592 5602 5601 5598 5598 5599 5599 5598 5596 5594 5591 5589 5588 5587 5587 5586 5586 5584 5583 5581 5579 5578 5576 5574 5571 5569 5567 5565 5564 5562 5560
5568 5566 5562 5563 5565 5566 5569 5574 5577 5574 5570 5569 5574 5596 5602 5600 5594 5593 5592 5593 5593 5591 5590 5587 5584 5583 5582 5582 5581 5580 5579 5578 5576 5574 5571 5569 5567 5565 5563 5562 5561 5559 5557 5555
5556 5554 5553 5557 5560 5562 5567 5565 5563 5561 5566 5575 5569 5589 5603 5599 5595 5593 5590 5589 5588 5587 5585 5582 5579 5577 5577 5576 5575 5574 5573 5572 5571 5569 5567 5566 5566 5565 5563 5559 5557 5554 5552 5550
5550 5547 5550 5554 5555 5554 5558 5553 5553 5554 5556 5560 5565 5570 5600 5592 5595 5596 5591 5587 5584 5581 5579 5578 5575 5573 5571 5570 5569 5568 5567 5566 5565 5563 5563 5561 5561 5559 5556 5553 5551 5549 5547 5545
5537 5535 5540 5546 5543 5543 5542 5544 5544 5544 5549 5554 5565 5567 5593 5596 5594 5592 5589 5583 5579 5576 5574 5572 5570 5567 5566 5564 5562 5562 5562 5561 5559 5558 5557 5556 5555 5553 5550 5548 5546 5544 5542 5540
5535 5533 5530 5533 5538 5535 5540 5547 5550 5550 5549 5561 5555 5558 5584 5587 5582 5581 5579 5577 5574 5570 5568 5566 5564 5561 5559 5557 5556 5556 5556 5555 5553 5552 5551 5550 5549 5548 5546 5544 5542 5539 5537 5536
5536 5540 5529 5527 5536 5540 5539 5545 5549 5553 5556 5564 5545 5559 5581 5575 5571 5569 5568 5566 5564 5562 5560 5558 5557 5555 5553 5551 5550 5549 5549 5548 5547 5546 5545 5543 5542 5541 5539 5538 5536 5535 5533 5531
5534 5534 5515 5514 5518 5528 5532 5536 5537 5537 5521 5535 5561 5564 5565 5566 5564 5563 5561 5559 5557 5554 5552 5550 5549 5547 5545 5544 5542 5541 5541 5540 5539 5538 5537 5536 5535 5534 5532 5530 5529 5527 5526 5525
5521 5517 5510 5505 5509 5511 5519 5527 5525 5529 5535 5547 5556 5561 5573 5567 5566 5560 5556 5553 5550 5546 5543 5541 5539 5538 5536 5535 5534 5533 5533 5532 5532 5530 5529 5529 5528 5527 5525 5523 5522 5520 5519 5518
5508 5508 5502 5501 5506 5516 5509 5511 5519 5524 5526 5538 5548 5566 5560 5559 5555 5551 5548 5545 5542 5538 5535 5533 5530 5528 5526 5525 5524 5524 5523 5523 5523 5522 5521 5520 5520 5519 5517 5516 5515 5513 5512 5511
5497 5501 5501 5501 5493 5492 5504 5512 5513 5520 5515 5515 5532 5548 5546 5541 5540 5538 5537 5534 5531 5528 5527 5524 5521 5520 5518 5517 5515 5514 5514 5514 5513 5512 5512 5512 5511 5510 5509 5509 5508 5506 5506 5504
5486 5488 5494 5499 5490 5480 5486 5494 5499 5502 5506 5509 5520 5541 5533 5529 5528 5527 5526 5524 5521 5518 5517 5515 5513 5512 5510 5508 5507 5506 5505 5505 5504 5503 5503 5503 5503 5502 5501 5500 5499 5498 5497 5496
5480 5478 5489 5507 5509 5494 5483 5484 5487 5492 5500 5508 5519 5535 5529 5526 5523 5521 5517 5515 5512 5510 5508 5507 5505 5503 5501 5499 5498 5497 5496 5495 5495 5495 5495 5495 5494 5493 5492 5491 5490 5489 5488 5488
5467 5470 5468 5477 5479 5478 5482 5483 5480 5486 5500 5506 5519 5517 5522 5520 5516 5512 5508 5505 5502 5500 5499 5498 5496 5495 5493 5491 5489 5488 5487 5486 5486 5486 5486 5486 5485 5484 5483 5481 5480 5480 5479 5479
5451 5455 5451 5455 5461 5460 5463 5475 5477 5479 5485 5494 5500 5504 5513 5508 5504 5500 5498 5495 5494 5493 5492 5489 5487 5485 5484 5482 5481 5479 5478 5477 5476 5477 5476 5475 5474 5474 5473 5472 5470 5470 5469 5469
5440 5439 5447 5460 5439 5444 5464 5481 5477 5476 5479 5484 5493 5505 5502 5497 5494 5492 5490 5487 5486 5484 5482 5480 5478 5477 5475 5473 5471 5470 5468 5467 5466 5466 5465 5464 5463 5463 5462 5461 5460 5460 5459 5458
5427 5427 5432 5437 5433 5456 5489 5481 5480 5478 5479 5479 5485 5491 5489 5487 5483 5479 5478 5477 5476 5474 5472 5470 5469 5467 5465 5462 5460 5459 5457 5455 5455 5455 5454 5453 5452 5452 5451 5450 5450 5449 5448 5447
5423 5421 5421 5425 5439 5458 5472 5464 5458 5463 5475 5473 5471 5475 5474 5469 5466 5470 5467 5464 5464 5462 5459 5458 5456 5454 5452 5450 5448 5447 5446 5444 5443 5443 5442 5441 5441 5441 5440 5439 5438 5437 5436 5435
5405 5409 5415 5415 5433 5449 5471 5455 5446 5452 5463 5467 5462 5464 5462 5456 5463 5470 5459 5452 5449 5447 5445 5443 5442 5440 5439 5437 5435 5435 5434 5432 5432 5432 5431 5429 5429 5429 5429 5428 5426 5425 5424 5423
5391 5395 5402 5410 5423 5440 5445 5431 5434 5447 5459 5452 5449 5450 5449 5447 5452 5448 5441 5437 5435 5432 5430 5428 5428 5427 5426 5423 5422 5421 5421 5420 5420 5418 5417 5417 5416 5416 5416 5415 5414 5412 5411 5410
5396 5395 5393 5398 5406 5428 5425 5417 5430 5439 5433 5431 5431 5431 5430 5430 5428 5426 5424 5423 5421 5419 5416 5414 5413 5413 5411 5409 5408 5409 5408 5408 5405 5404 5404 5403 5402 5402 5401 5401 5400 5398 5397 5396
5389 5399 5401 5402 5418 5416 5406 5409 5409 5408 5411 5411 5412 5413 5412 5411 5411 5411 5409 5407 5405 5403 5400 5398 5397 5397 5396 5394 5394 5395 5395 5392 5391 5390 5389 5389 5388 5387 5386 5386 5385 5384 5383 5382
5371 5368 5376 5379 5394 5392 5387 5386 5386 5386 5389 5391 5392 5393 5394 5394 5395 5393 5392 5390 5387 5385 5383 5381 5380 5381 5380 5379 5378 5378 5377 5376 5376 5376 5375 5374 5373 5373 5371 5370 5370 5370 5369 5369
5362 5352 5357 5364 5371 5372 5376 5372 5371 5371 5370 5371 5372 5373 5374 5375 5375 5375 5374 5372 5371 5369 5366 5364 5364 5365 5365 5364 5363 5362 5361 5360 5361 5361 5361 5360 5359 5358 5356 5355 5355 5355 5355 5354
5341 5339 5350 5366 5361 5360 5365 5360 5355 5354 5354 5354 5354 5354 5353 5353 5354 5355 5356 5355 5353 5351 5349 5348 5347 5347 5347 5347 5346 5345 5344 5345 5346 5347 5346 5345 5344 5343 5342 5341 5341 5340 5340 5340